Regional Weather Roundup
Issued by NWS

Home | Current Version | Previous Version | Text Only | Print | Product List | Glossary On
Versions: 1 2 3 4 5 6 7 8 9 10 11 12 13 14 15 16 17 18 19 20 21 22 23 24 25 26 27 28 29 30 31 32 33 34 35 36 37 38 39 40 41 42 43 44 45 46 47 48 49 50
000
ASUS43 KTOP 070559
RWRKS

WEATHER ROUNDUP FOR KANSAS
NATIONAL WEATHER SERVICE GOODLAND KS
1200 AM CST WED DEC 07 2016

NOTE:  "FAIR" INDICATES FEW OR NO CLOUDS BELOW 12,000 FEET WITH NO
SIGNIFICANT WEATHER AND/OR OBSTRUCTIONS TO VISIBILITY.

KSZ001>006-013>018-027>032-041>047-070700-
NORTHWEST KANSAS

CITY           SKY/WX    TMP DP  RH WIND       PRES   REMARKS
GOODLAND       CLOUDY    24   2  38 E12       29.96F WCI  13
6HR MIN TEMP:  18; 6HR MAX TEMP:  25;

HAYS           CLOUDY    28  18  66 NE5       30.09F
HILL CITY      CLOUDY    23  12  62 CALM      30.10R
6HR MIN TEMP:  20; 6HR MAX TEMP:  26;

RUSSELL        CLOUDY    29  18  63 E6        30.09S
6HR MIN TEMP:  28; 6HR MAX TEMP:  33;

$$

KSZ061>065-074>080-084>089-070700-
SOUTHWEST KANSAS

CITY           SKY/WX    TMP DP  RH WIND       PRES   REMARKS
DODGE CITY     CLEAR     21  13  71 SE6       30.06R
6HR MIN TEMP:  21; 6HR MAX TEMP:  30;

ELKHART          N/A     14   0  54 SE12        N/A  WCI   0
GARDEN CITY    MOCLDY    24   9  52 SE13      30.00F WCI  12
6HR MIN TEMP:  19; 6HR MAX TEMP:  31;

GREAT BEND     CLOUDY    29  22  75 CALM      30.11R
LIBERAL        CLOUDY    25   9  50 SE10G16   29.98F WCI  15
$$

KSZ066>073-081>083-090>101-070700-
SOUTHEAST KANSAS

CITY           SKY/WX    TMP DP  RH WIND       PRES   REMARKS
CHANUTE        CLOUDY    32  23  69 CALM      30.16R
6HR MIN TEMP:  27; 6HR MAX TEMP:  35;

COFFEYVILLE    PTCLDY    32  22  66 N5        30.16R
6HR MIN TEMP:  32; 6HR MAX TEMP:  37;

HUTCHINSON     MOCLDY    30  19  63 E7        30.11F
6HR MIN TEMP:  27; 6HR MAX TEMP:  32;

MEDICINE LODGE   N/A     33  18  53 E3        30.11R
NEWTON         MOCLDY    31  22  69 E3        30.13F
PARSONS        MOCLDY    33  19  56 CALM      30.16R
6HR MIN TEMP:  29; 6HR MAX TEMP:  35;

WICHITA INTL   CLOUDY    35  19  52 NE8       30.11F
6HR MIN TEMP:  30; 6HR MAX TEMP:  36;

WICHITA JABRA  CLOUDY    32  21  64 NE3       30.12S
6HR MIN TEMP:  30; 6HR MAX TEMP:  34;

WINFIELD       CLOUDY    35  18  49 NE5       30.14S
6HR MIN TEMP:  32; 6HR MAX TEMP:  35;

$$

KSZ007>012-019>026-033>040-048>060-102>105-070700-
NORTHEAST KANSAS

CITY           SKY/WX    TMP DP  RH WIND       PRES   REMARKS
CONCORDIA      CLOUDY    28  16  60 N3        30.15R
6HR MIN TEMP:  26; 6HR MAX TEMP:  32;

EMPORIA        CLOUDY    30  22  72 NW3       30.14R
6HR MIN TEMP:  28; 6HR MAX TEMP:  35;

LAWRENCE       CLOUDY    27  23  85 W6        30.16R
6HR MIN TEMP:  22; 6HR MAX TEMP:  28;

MANHATTAN      CLOUDY    27  22  81 SW5       30.17R
6HR MIN TEMP:  22; 6HR MAX TEMP:  34;

OLATHE IND     CLOUDY    31  17  56 N12       30.14R WCI  22
6HR MIN TEMP:  29; 6HR MAX TEMP:  33;

OLATHE EXE     CLOUDY    32  13  45 N8        30.13S
6HR MIN TEMP:  28; 6HR MAX TEMP:  32;

SALINA         CLOUDY    30  22  72 NW6       30.15S
6HR MIN TEMP:  24; 6HR MAX TEMP:  35;

TOPEKA BILLARD CLOUDY    30  21  69 CALM      30.16R
6HR MIN TEMP:  25; 6HR MAX TEMP:  31;

TOPEKA FORBES  CLOUDY    30  20  66 CALM      30.15R
6HR MIN TEMP:  25; 6HR MAX TEMP:  31;

$$




USA.gov is the U.S. government's official web portal to all federal, state and local government web resources and services.